[[{"header":{"parameterUnit":"m.s-1","parameterCategory":1,"la1":30.2991,"la2":30.254,"lo1":-89.0895,"lo2":-89.0444,"dy":0.0017,"dx":0.0017,"nx":28,"ny":28,"refTime":"2024-07-29T21:00:00:Z","depth":0,"parameterNumber":2,"parameterNumberName":"U-component_of_WINDS"},"data":[0,0,0,0,0,0,0,0,0,0,0,0,0,0,0,0,0,0,0,0,0,0,0,0,0,0,0,0,0,0,0,0,0,0,0,0,0,0,0,0,0,0,0,0,0,0,0,0,0,0,0,0,0,0,0,0,0,0,1.3326,1.3327,0,1.347,1.3472,1.3474,1.353,1.353,1.3529,1.3529,1.3679,1.3684,1.3688,0,0,0,0,0,0,0,0,0,0,0,0,0,1.3102,1.3106,1.3326,1.3328,1.3329,1.347,1.3472,1.3474,1.353,1.353,1.3529,1.3529,1.3678,1.3683,1.3688,0,0,0,0,0,0,0,0,0,0,0,0,0,1.3218,1.3107,1.3325,1.3374,1.338,1.347,1.3472,1.3475,1.353,1.353,1.3529,1.3528,1.3676,1.3683,1.3689,1.3742,0,0,1.3709,1.3712,0,0,0,0,0,0,0,0,1.3212,1.3227,1.3365,1.3371,1.3378,1.3481,1.3449,1.3564,1.353,1.3473,1.3529,1.3528,1.3614,1.3626,1.3654,1.3749,1.3755,1.371,1.3714,1.3717,1.3718,0,0,0,0,0,0,0,1.3204,1.3221,1.3383,1.3367,1.3375,1.339,1.3406,1.3471,1.3545,1.3478,1.3483,1.3499,1.3618,1.3648,1.3658,1.3757,1.371,1.3715,1.372,1.3722,1.3904,1.3905,0,0,0,0,0,0,1.3187,1.3214,1.3379,1.3387,1.3291,1.3395,1.3412,1.3449,1.3545,1.3559,1.3499,1.3501,1.3637,1.3651,1.3664,1.3733,1.3717,1.3723,1.3726,1.3904,1.3905,1.3906,0,0,0,0,0,0,1.3182,1.3201,1.3373,1.3302,1.3325,1.3399,1.344,1.3452,1.3482,1.3561,1.3575,1.3516,1.3637,1.3655,1.3722,1.3739,1.3726,1.3732,1.3903,1.3904,1.3905,1.3871,0,0,0,0,0,0,1.3175,1.3199,1.3219,1.3302,1.3328,1.3427,1.3441,1.3455,1.3493,1.3497,1.358,1.3594,1.3638,1.3712,1.3729,1.3748,1.3737,1.3901,1.3903,1.3905,1.3871,1.3871,1.3871,0,0,0,0,0,1.3167,1.3203,1.3219,1.3239,1.3354,1.3428,1.3443,1.3493,1.3494,1.3516,1.3566,1.3591,1.3734,1.3718,1.3738,1.3759,1.3901,1.3903,1.3905,1.3871,1.3871,1.3871,0,0,0,0,0,0,1.3121,1.3215,1.3234,1.3298,1.3354,1.3437,1.3465,1.3491,1.3549,1.355,1.361,1.3628,1.3691,1.3732,1.3713,1.3816,1.3819,1.3825,1.3787,1.3788,1.3788,1.3777,1.3742,0,0,0,0,0,1.3118,1.3169,1.3249,1.3298,1.3325,1.339,1.3424,1.3458,1.3519,1.3543,1.3599,1.3659,1.3718,1.3755,1.3813,1.3877,1.3897,1.3901,1.3901,1.3901,1.3905,1.3944,1.3947,1.3912,1.3912,1.3912,0,0,1.3113,1.317,1.3199,1.329,1.3338,1.3391,1.341,1.3465,1.3505,1.3552,1.3619,1.3662,1.3733,1.3799,1.3831,1.3835,1.392,1.3903,1.3902,1.3908,1.3946,1.395,1.3952,1.3914,1.3913,1.3913,0,0,1.313,1.3178,1.3225,1.3273,1.3345,1.3388,1.3399,1.3479,1.3509,1.3577,1.3614,1.3664,1.3763,1.3813,1.3851,1.3889,1.3914,1.3906,1.3906,1.3943,1.3946,1.3949,1.3963,1.3968,1.391,1.391,1.391,0,1.3115,1.3195,1.3246,1.3299,1.3339,1.3383,1.3432,1.3476,1.3564,1.3591,1.3594,1.3721,1.3771,1.385,1.386,1.3889,1.3905,1.3897,1.3941,1.3944,1.3948,1.3963,1.3968,1.3909,1.3909,1.3909,1.3909,0,1.3173,1.3228,1.3257,1.334,1.3383,1.3434,1.3494,1.3532,1.3562,1.3605,1.3675,1.3738,1.381,1.3832,1.3861,1.3916,1.3916,1.3929,1.3934,1.3949,1.3964,1.397,1.3907,1.3907,1.3908,1.3908,0,0,1.3165,1.3276,1.3286,1.3325,1.3409,1.3453,1.3506,1.3577,1.3608,1.3668,1.3715,1.3799,1.3812,1.3855,1.3891,1.3923,1.3951,1.3933,1.3936,1.3935,1.4017,1.4007,1.4012,1.3969,1.397,1.3971,1.4011,0,1.3194,1.329,1.3339,1.3415,1.3467,1.3511,1.3558,1.3615,1.3658,1.371,1.3757,1.3816,1.3828,1.3855,1.3889,1.394,1.3969,1.3938,1.4015,1.4017,1.3996,1.402,1.4009,1.4044,1.4017,1.4018,1.4019,0,1.3241,1.33,1.338,1.3459,1.3483,1.3524,1.3593,1.3642,1.3708,1.3737,1.3786,1.3821,1.3881,1.3881,1.3965,1.3944,1.3978,1.4008,1.4011,1.402,1.4019,1.4031,1.4056,1.4062,1.4029,1.4028,1.4027,0,1.3228,1.3327,1.3389,1.3421,1.3514,1.3542,1.3583,1.3648,1.3688,1.3749,1.3776,1.3843,1.388,1.3932,1.3985,1.398,1.4065,1.4069,1.4091,1.409,1.4107,1.4105,1.4139,1.4128,1.4128,1.4128,1.4128,0,1.3256,1.3304,1.3385,1.3423,1.3479,1.3535,1.3589,1.3633,1.3691,1.374,1.3782,1.3827,1.3894,1.3948,1.3991,1.4055,1.4071,1.4097,1.4108,1.4093,1.409,1.4117,1.4116,1.4129,1.4129,1.4129,1.4129,0,1.3251,1.3307,1.3377,1.346,1.3482,1.3519,1.3591,1.363,1.3675,1.3736,1.3754,1.3825,1.3891,1.3949,1.4036,1.4064,1.413,1.4143,1.4107,1.4113,1.4133,1.4131,1.4186,1.4196,1.4177,1.4177,1.4177,0,1.3265,1.3304,1.339,1.3425,1.3465,1.3521,1.3562,1.3619,1.366,1.3739,1.377,1.3838,1.3896,1.4,1.406,1.4127,1.4142,1.4157,1.4153,1.4138,1.4144,1.4141,1.4146,1.4157,1.4157,1.4157,1.4157,0,1.3286,1.3312,1.3368,1.3435,1.3482,1.3538,1.3594,1.3621,1.3689,1.3734,1.3801,1.3846,1.3935,1.4003,1.4077,1.4121,1.4151,1.4158,1.4167,1.4153,1.4131,1.4144,1.4108,1.4156,1.4156,1.4156,1.4156,1.4156,1.3292,1.3328,1.3395,1.3457,1.3506,1.3558,1.36,1.365,1.3707,1.3783,1.3814,1.3883,1.3951,1.4053,1.4097,1.4152,1.4158,1.417,1.4174,1.4176,1.4174,1.4121,1.4166,1.4166,1.4166,1.4166,1.4166,0,1.3315,1.336,1.3417,1.3495,1.3544,1.3567,1.3632,1.3672,1.3732,1.3792,1.3848,1.3926,1.3993,1.4059,1.4129,1.4161,1.4177,1.4178,1.4177,1.4186,1.4165,1.415,1.4164,1.4164,1.4164,1.4164,1.4164,1.4164,1.3333,1.3396,1.343,1.3519,1.3565,1.3632,1.3667,1.3716,1.3764,1.3849,1.3905,1.3947,1.401,1.4086,1.4148,1.4166,1.4191,1.4188,1.421,1.4188,1.4188,1.4187,1.4174,1.4193,1.4193,1.4227,1.4227,1.4227]},{"header":{"parameterUnit":"m.s-1","parameterCategory":1,"la1":30.2991,"la2":30.254,"lo1":-89.0895,"lo2":-89.0444,"dy":0.0017,"dx":0.0017,"nx":28,"ny":28,"refTime":"2024-07-29T21:00:00:Z","depth":0,"parameterNumber":3,"parameterNumberName":"V-component_of_WINDS"},"data":[0,0,0,0,0,0,0,0,0,0,0,0,0,0,0,0,0,0,0,0,0,0,0,0,0,0,0,0,0,0,0,0,0,0,0,0,0,0,0,0,0,0,0,0,0,0,0,0,0,0,0,0,0,0,0,0,0,0,0.8273,0.8273,0,0.8272,0.8272,0.8271,0.8245,0.8244,0.8243,0.8243,0.8241,0.8242,0.8243,0,0,0,0,0,0,0,0,0,0,0,0,0,0.8252,0.8252,0.8273,0.8273,0.8273,0.8272,0.8272,0.8271,0.8245,0.8244,0.8243,0.8242,0.8241,0.8242,0.8243,0,0,0,0,0,0,0,0,0,0,0,0,0,0.8257,0.8252,0.8273,0.826,0.8259,0.8272,0.8272,0.8271,0.8245,0.8244,0.8243,0.8242,0.8241,0.8242,0.8243,0.8269,0,0,0.8245,0.8246,0,0,0,0,0,0,0,0,0.8256,0.8257,0.8262,0.8261,0.8259,0.8257,0.8263,0.8271,0.8245,0.825,0.8243,0.8242,0.8248,0.8248,0.825,0.8269,0.8269,0.8246,0.8246,0.8246,0.8247,0,0,0,0,0,0,0,0.8256,0.8257,0.8273,0.8262,0.826,0.8253,0.8253,0.8265,0.8255,0.825,0.8248,0.8248,0.8247,0.8249,0.825,0.8269,0.8246,0.8246,0.8247,0.8247,0.8304,0.8305,0,0,0,0,0,0,0.8258,0.8257,0.8273,0.8273,0.8255,0.8254,0.8254,0.8259,0.8254,0.8253,0.8249,0.8247,0.8248,0.8249,0.8249,0.8277,0.8246,0.8247,0.8248,0.8303,0.8304,0.8305,0,0,0,0,0,0,0.8257,0.8259,0.8273,0.8264,0.8265,0.8256,0.8262,0.826,0.8262,0.8254,0.8252,0.8253,0.8247,0.8248,0.8263,0.8276,0.8248,0.8249,0.8302,0.8304,0.8305,0.8333,0,0,0,0,0,0,0.8257,0.8259,0.827,0.8265,0.8266,0.8287,0.8263,0.826,0.8263,0.8261,0.8257,0.8256,0.8246,0.8262,0.8264,0.8277,0.8249,0.8301,0.8303,0.8304,0.8331,0.8335,0.8339,0,0,0,0,0,0.8256,0.8279,0.8271,0.8273,0.8279,0.8288,0.8289,0.8278,0.8265,0.8274,0.8268,0.8256,0.8275,0.8264,0.8266,0.8279,0.83,0.8302,0.8304,0.8329,0.8335,0.8339,0,0,0,0,0,0,0.8287,0.8278,0.8269,0.8291,0.829,0.8284,0.8296,0.8284,0.8288,0.8285,0.8271,0.827,0.8287,0.8285,0.8273,0.8302,0.8285,0.8287,0.8303,0.8308,0.8312,0.8312,0.825,0,0,0,0,0,0.8297,0.8305,0.8297,0.8317,0.8317,0.8306,0.831,0.8301,0.83,0.83,0.8295,0.8295,0.83,0.8304,0.8309,0.833,0.8328,0.834,0.8345,0.8348,0.835,0.8358,0.8363,0.8313,0.8313,0.8313,0,0,0.8316,0.8312,0.8319,0.8323,0.8321,0.8329,0.8307,0.8317,0.8322,0.8302,0.8314,0.8311,0.8309,0.8326,0.8334,0.8325,0.8363,0.8351,0.8354,0.8354,0.8361,0.8365,0.837,0.8314,0.8314,0.8314,0,0,0.8355,0.8354,0.8369,0.8367,0.8365,0.8357,0.8361,0.8355,0.8351,0.8364,0.8347,0.8353,0.8364,0.8362,0.8362,0.8397,0.8384,0.8399,0.842,0.8427,0.8431,0.8435,0.8444,0.8448,0.8401,0.8401,0.8401,0,0.838,0.8392,0.8378,0.8388,0.8389,0.837,0.8384,0.8383,0.8382,0.8383,0.8373,0.8383,0.838,0.8395,0.8403,0.8405,0.8407,0.8399,0.8432,0.8435,0.8438,0.8447,0.8451,0.8403,0.8403,0.8402,0.8402,0,0.842,0.8428,0.8441,0.8439,0.8441,0.8454,0.8441,0.8445,0.8435,0.8427,0.8439,0.8435,0.8436,0.844,0.8431,0.8452,0.8446,0.8435,0.8417,0.8445,0.8453,0.8456,0.8405,0.8404,0.8404,0.8404,0,0,0.8481,0.8469,0.8474,0.8471,0.8465,0.847,0.848,0.8481,0.8484,0.8483,0.849,0.8497,0.8485,0.8485,0.8476,0.8483,0.8506,0.8469,0.8469,0.8474,0.8526,0.8534,0.8538,0.8498,0.8498,0.8499,0.8525,0,0.8517,0.8533,0.8519,0.8538,0.8543,0.8523,0.8531,0.8528,0.852,0.8523,0.8515,0.852,0.8505,0.8504,0.851,0.8502,0.8516,0.85,0.8502,0.8502,0.8502,0.8543,0.8552,0.8578,0.8529,0.8529,0.853,0,0.8561,0.856,0.8579,0.8568,0.857,0.8578,0.8575,0.8579,0.8573,0.8567,0.8566,0.8553,0.8561,0.8543,0.8552,0.8541,0.8541,0.8536,0.8537,0.8536,0.8517,0.8541,0.8586,0.8589,0.8535,0.8535,0.8534,0,0.86,0.8604,0.8614,0.8613,0.8602,0.8607,0.8602,0.8596,0.8596,0.8594,0.8593,0.8593,0.8592,0.8591,0.8578,0.8567,0.8586,0.8569,0.858,0.858,0.8585,0.8585,0.8628,0.8587,0.8587,0.8587,0.8587,0,0.864,0.8652,0.8631,0.8638,0.8649,0.8632,0.8644,0.8637,0.8631,0.8634,0.8617,0.8621,0.8604,0.8605,0.8595,0.8601,0.8602,0.8596,0.8593,0.8597,0.8597,0.8596,0.8593,0.8588,0.8588,0.8588,0.8588,0,0.8686,0.8673,0.8682,0.867,0.8667,0.8675,0.8664,0.8668,0.8659,0.8664,0.8664,0.8649,0.8649,0.8636,0.8634,0.8626,0.8637,0.8632,0.8639,0.8636,0.8647,0.8646,0.8691,0.8695,0.8653,0.8653,0.8654,0,0.8712,0.872,0.8707,0.8708,0.8703,0.8706,0.8705,0.8688,0.8688,0.868,0.8685,0.8684,0.8682,0.8683,0.8671,0.8669,0.8662,0.8678,0.8662,0.8664,0.866,0.8659,0.8658,0.8681,0.8682,0.8682,0.8682,0,0.8758,0.875,0.875,0.8747,0.8746,0.8743,0.8738,0.874,0.8721,0.8722,0.8721,0.8719,0.8716,0.8714,0.8708,0.8703,0.8689,0.8687,0.8689,0.8693,0.8696,0.8692,0.8646,0.8687,0.8686,0.8686,0.8686,0.8685,0.8793,0.8798,0.8789,0.8788,0.8782,0.8778,0.878,0.877,0.8769,0.8765,0.8755,0.8755,0.8746,0.8738,0.8733,0.8732,0.8724,0.8727,0.8728,0.8729,0.873,0.8697,0.8731,0.8731,0.8731,0.873,0.873,0,0.8837,0.8829,0.8829,0.8822,0.882,0.8807,0.88,0.88,0.88,0.8793,0.879,0.8788,0.8785,0.8773,0.8768,0.8769,0.8762,0.8768,0.8768,0.8766,0.8739,0.8736,0.8774,0.8774,0.8774,0.8774,0.8774,0.8774,0.8859,0.8865,0.8856,0.8858,0.8851,0.885,0.8847,0.8842,0.8836,0.8834,0.8831,0.8822,0.8812,0.8806,0.8802,0.8798,0.8796,0.8804,0.8798,0.8772,0.8768,0.8764,0.8762,0.8804,0.8804,0.8825,0.8825,0.8825]}]]